Location: ????????
(60.4333°N, 46.4710°E)
Time: 19:14:39
(UTC+00:00)

Cosmos 2219 Rocket - Pass Details

Date: 25 November 2020
Orbit: 829 x 845 km, 71.0° (Epoch: 16 January)

Event Time Altitude Azimuth Distance (km) Brightness Sun altitude
Rises 17:24:21 0° 281° (W) 3,397 6.2 -37.7°
Reaches altitude 10° 17:27:08 10° 293° (WNW) 2,460 5.3 -38.0°
Enters shadow 17:30:26 25° 325° (NW) 1,628 4.1 -38.4°
